OSCAR 29 (18362 NORAD) Tracking and Keplerian Element Data

This shows tracking and keplerian element data for the satellite.

Feedback or suggestion? Click here.




ElementValue
Catalog18362
NameOSCAR 29
Epoch Orbit87610
Epoch Day354.21393124
Epoch Year2025
RAAN80.0114
Inclination90.3751
Eccentricity0.0104376
Argument of Perigee225.4939
Mean Anonmoly161.7997
Mean Motion13.44449616
Decay Rate8.2E-07
L11 18362U 87080B 25354.21393124 .00000082 00000+0 12395-3 0 9999
L22 18362 90.3751 80.0114 0104376 225.4939 161.7997 13.44449616876100



Live tracking and technical data element details for OSCAR 29 (NORAD 18362). OSCAR 29 can be tracked NOW for your location showing map with azimuth and elevation plus other details from your city location.







IsCatalogInMostPopularTable: catalog: 18362, numindb: 428
Update: records affected: 1



GetName: 18362 OSCAR 29

Hit Count: updated at: Wed, 15 Apr 2026 01:35:34 GMT